星链-34606 (STARLINK-34606)

导读

STARLINK-34606是美国太空探索技术公司SpaceX星链星座的卫星,星链计划旨在搭建覆盖全球的卫星互联网系统。该卫星于2025年7月2日发射入轨,承担低轨宽带互联网服务任务,进一步扩充星链星座规模,提升全球网络覆盖能力与服务容量,助力航空、海事等偏远场景的互联网接入。

基本信息
目录编号:
64730
目录名称:
STARLINK-34606
国际标识:
2025-144G
轨道中心:
EARTH
卫星名称:
星链-34606
卫星全名:
星链-34606 (STARLINK-34606)
卫星状态:
在轨 (已飞行429 天)
发射日期:
2025-07-02 UTC
国别 :
美国 (US)
星等 :
--
轨道信息
数据来源 国际轨道数据 AOE轨道数据
星历时间 2026-09-03T21:12:18+0800
16小时前
查看轨道信息
2026-09-03T09:00:00+0800
1天前
查看轨道信息
半长轴 6840.868km 6840.942km
偏心率 0.0001288 0.0000911
轨道倾角 53.158° 53.156°
近地点辐角 104.880° 72.149°
升交点赤经 72.734° 75.110°
平近点角 255.234° 357.299°
近地点 461.849km 462.181km
远地点 463.613km 463.429km
周期 93.848分钟 93.850分钟
每日圈数 15.343909 15.343659
详细信息
固有亮度:
5
最大亮度:
2.5
卫星平台:
Starlink V1.0
覆盖范围:
全球
运营商:
太空探索技术公司
运营商所在国:
美国
制造商(研发单位):
太空探索技术公司
制造商所在国:
美国
使用方式:
暂无
卫星简介
Starlink 计划是 SpaceX 推出的全球卫星互联网项目,通过发射低轨道卫星,为全球尤其是偏远地区提供高速、低延迟的互联网服务。自 2019 年起,Starlink 已部署数千颗卫星,旨在缩小全球数字鸿沟,推动互联网普及。该项目还为军事、航空等行业提供通信支持,带来广泛经济效益。
2D轨道图
3D轨道图
轨道高度分析图
轨道倾角分析图
轨道综合分析图
查看轨道综合分析图
交会数据列表
事件ID 空间交会对象 最接近时刻(TCA) 交会距离 交会风险概率(CRP) 交会风险指数(CRI) 操作
CDM_260904-220606-473006-688721
2026-09-04T
22:06:52+0000
0.604 km
远距离
1.131263E-4 高风险 0.76
CDM_260829-113906-473006-806921
2026-08-29T
11:39:11+0000
0.353 km
远距离
8.651427E-5 中风险 0.74
CDM_260905-112406-473006-688721
2026-09-05T
11:24:08+0000
1.099 km
极远距离
1.687861E-5 中风险 0.6
CDM_260905-003906-473006-609521
2026-09-05T
00:39:44+0000
1.118 km
极远距离
1.140769E-5 中风险 0.56
CDM_260905-120606-473006-856221
2026-09-05T
12:06:21+0000
1.281 km
极远距离
1.00299E-5 中风险 0.55
CDM_260905-000106-473006-787021
2026-09-05T
00:01:16+0000
0.952 km
远距离
9.682366E-6 低风险 0.55
CDM_260829-104506-473006-602721
2026-08-29T
10:45:50+0000
1.447 km
极远距离
4.827704E-6 低风险 0.49
CDM_260905-070506-296406-473021
2026-09-05T
07:05:24+0000
1.341 km
极远距离
4.658568E-6 低风险 0.48
CDM_260829-121906-473006-602721
2026-08-29T
12:19:38+0000
1.538 km
极远距离
3.974166E-6 低风险 0.47
CDM_260829-105206-473006-806921
2026-08-29T
10:52:17+0000
1.054 km
极远距离
2.872116E-6 低风险 0.44